Location: Gro� Glienicke
(52.4675°N, 13.1079°E)
Time: 02:53:34
(UTC+00:00)

Terra - Pass Details

Date: 06 July 2020
Orbit: 701 x 703 km, 98.2° (Epoch: 04 August)

Event Time Altitude Azimuth Distance (km) Brightness Sun altitude
Exits shadow 21:14:58 11° 180° (S) 2,105 3.7 -10.7°
Maximum altitude 21:19:29 57° 259° (W) 833 2.3 -11.0°
Drops below altitude 10° 21:24:12 10° 338° (NNW) 2,184 5.9 -11.3°
Sets 21:26:30 0° 343° (NNW) 3,107 7.2 -11.5°
